Date String (YYYY-MM-DD hh:mm:ss) UTC,Instrument flags,Ambient pressure (hPa),Sample flow (lpm),Bypass flow (lpm),Sample temperature (°C),Ambient temperature (°C),ASC tube jacket temperature (°C),LED temperature (°C),Box temperature (°C),Sample RH (%),Span deviation,Mass concentration (μg/m³),Mass concentration (μg/m³),Mass concentration (μg/m³)
DateTimeUTC,F1_M11,P_M11,Q1_M11,Q2_M11,T1_M11,T2_M11,T3_M11,T4_M11,T5_M11,U1_M11,ZSPAN_M11,X0_M11,X2_M11,X1_M11
2021-12-29 09:00:00,,0810.8,5.01,0.00,22.6,21.9,00.0,31.6,24.3,05.9,0000.0,0013.10,0003.20,0001.18
2021-12-29 09:01:00,,0810.9,5.00,0.00,22.6,21.8,00.0,31.6,24.2,06.0,0000.0,0012.99,0003.15,0001.15
2021-12-29 09:02:00,,0810.9,5.00,0.00,22.6,21.8,00.0,31.6,24.2,06.0,0000.0,0012.96,0003.11,0001.13
2021-12-29 09:03:00,,0810.8,5.00,0.00,22.6,21.7,00.0,31.6,24.2,06.0,0000.0,0013.04,0003.08,0001.11
2021-12-29 09:04:00,,0810.8,4.99,0.00,22.5,21.7,00.0,31.6,24.1,06.0,0000.0,0012.81,0003.12,0001.11
2021-12-29 09:05:00,,0810.8,5.01,0.00,22.5,21.6,00.0,31.6,24.1,06.0,0000.0,0012.35,0003.10,0001.10
2021-12-29 09:06:00,,0810.8,4.99,0.00,22.5,21.8,00.0,31.5,24.1,05.9,0000.0,0012.71,0003.06,0001.09
2021-12-29 09:07:00,,0810.9,5.00,0.00,22.6,22.4,00.0,31.6,24.3,05.9,0000.0,0012.48,0003.06,0001.09
2021-12-29 09:08:00,,0810.9,5.00,0.00,22.7,23.1,00.0,31.6,24.6,05.9,0000.0,0012.06,0003.00,0001.08
2021-12-29 09:09:00,,0810.9,5.01,0.00,22.8,23.3,00.0,31.6,24.7,05.9,0000.0,0012.21,0002.90,0001.07
2021-12-29 09:10:00,,0810.9,4.99,0.00,22.8,23.0,00.0,31.7,24.7,05.9,0000.0,0012.04,0002.90,0001.09
2021-12-29 09:11:00,,0810.9,5.01,0.00,22.8,22.8,00.0,31.7,24.6,05.9,0000.0,0012.08,0002.88,0001.10
2021-12-29 09:12:00,,0810.9,5.00,0.00,22.8,22.6,00.0,31.7,24.5,05.8,0000.0,0012.03,0002.91,0001.13
2021-12-29 09:13:00,,0810.9,5.00,0.00,22.8,22.4,00.0,31.7,24.5,05.9,0000.0,0010.59,0002.93,0001.13
2021-12-29 09:14:00,,0811.0,5.00,0.00,22.7,22.3,00.0,31.7,24.4,05.9,0000.0,0010.37,0002.98,0001.14
2021-12-29 09:15:00,,0810.9,5.00,0.00,22.7,22.2,00.0,31.7,24.4,05.9,0000.0,0010.02,0002.96,0001.14
2021-12-29 09:16:00,,0811.0,5.00,0.00,22.7,22.0,00.0,31.7,24.3,05.9,0000.0,0010.23,0002.90,0001.15
2021-12-29 09:17:00,,0811.0,5.01,0.00,22.6,21.9,00.0,31.7,24.3,05.9,0000.0,0010.21,0002.91,0001.15
2021-12-29 09:18:00,,0810.9,5.01,0.00,22.6,21.8,00.0,31.6,24.2,06.0,0000.0,0010.34,0002.93,0001.15
2021-12-29 09:19:00,,0810.9,4.99,0.00,22.6,21.8,00.0,31.6,24.1,06.0,0000.0,0010.35,0002.94,0001.15
2021-12-29 09:20:00,,0810.8,5.01,0.00,22.5,21.7,00.0,31.6,24.0,06.0,0000.0,0010.00,0003.05,0001.16
2021-12-29 09:21:00,,0810.8,5.00,0.00,22.5,21.6,00.0,31.6,24.0,06.0,0000.0,0009.59,0003.03,0001.17
2021-12-29 09:22:00,,0810.9,4.99,0.00,22.4,21.6,00.0,31.6,24.0,06.1,0000.0,0010.30,0003.07,0001.18
2021-12-29 09:23:00,,0810.9,4.99,0.00,22.5,22.0,00.0,31.6,24.1,06.1,0000.0,0010.97,0003.11,0001.17
2021-12-29 09:24:00,,0810.9,5.01,0.00,22.6,22.8,00.0,31.6,24.4,06.0,0000.0,0011.10,0003.14,0001.18
2021-12-29 09:25:00,,0810.9,5.00,0.00,22.7,23.3,00.0,31.6,24.6,06.0,0000.0,0011.32,0003.10,0001.19
2021-12-29 09:26:00,,0810.9,5.00,0.00,22.8,23.2,00.0,31.7,24.6,06.0,0000.0,0012.18,0003.12,0001.22
2021-12-29 09:27:00,,0810.8,5.01,0.00,22.8,22.9,00.0,31.7,24.6,06.0,0000.0,0012.99,0003.15,0001.23
2021-12-29 09:28:00,,0810.9,4.99,0.00,22.8,22.7,00.0,31.7,24.5,06.0,0000.0,0014.44,0003.16,0001.22
2021-12-29 09:29:00,,0811.0,5.00,0.00,22.7,22.4,00.0,31.7,24.4,06.0,0000.0,0014.40,0003.15,0001.22
2021-12-29 09:30:00,,0811.0,5.00,0.00,22.7,22.2,00.0,31.7,24.3,06.0,0000.0,0014.73,0003.15,0001.22
2021-12-29 09:31:00,,0811.0,5.01,0.00,22.6,22.1,00.0,31.6,24.2,06.0,0000.0,0014.62,0003.09,0001.22
2021-12-29 09:32:00,,0811.0,5.00,0.00,22.6,21.9,00.0,31.6,24.1,06.0,0000.0,0015.77,0003.12,0001.21
2021-12-29 09:33:00,,0811.0,4.99,0.00,22.5,21.8,00.0,31.6,24.1,06.1,0000.0,0014.91,0003.09,0001.20
2021-12-29 09:34:00,,0811.0,5.00,0.00,22.5,21.7,00.0,31.6,24.0,06.1,0000.0,0014.69,0003.00,0001.20
2021-12-29 09:35:00,,0810.9,5.01,0.00,22.4,21.6,00.0,31.6,24.0,06.1,0000.0,0014.73,0002.92,0001.20
2021-12-29 09:36:00,,0811.0,5.00,0.00,22.4,21.6,00.0,31.5,24.0,06.1,0000.0,0014.73,0003.02,0001.18
2021-12-29 09:37:00,,0811.0,4.99,0.00,22.4,21.5,00.0,31.5,23.9,06.1,0000.0,0014.72,0002.96,0001.16
2021-12-29 09:38:00,,0811.0,4.99,0.00,22.3,21.5,00.0,31.5,23.9,06.1,0000.0,0015.16,0003.00,0001.16
2021-12-29 09:39:00,,0811.0,5.01,0.00,22.4,21.9,00.0,31.5,24.0,06.1,0000.0,0013.46,0002.99,0001.17
2021-12-29 09:40:00,,0811.0,5.00,0.00,22.5,22.7,00.0,31.5,24.3,06.0,0000.0,0013.04,0003.00,0001.16
2021-12-29 09:41:00,,0810.9,5.00,0.00,22.6,23.3,00.0,31.5,24.5,06.0,0000.0,0012.81,0002.99,0001.16
2021-12-29 09:42:00,,0811.0,5.01,0.00,22.7,23.1,00.0,31.6,24.5,06.0,0000.0,0012.82,0002.99,0001.15
2021-12-29 09:43:00,,0811.0,5.00,0.00,22.7,22.9,00.0,31.6,24.5,05.9,0000.0,0011.78,0003.04,0001.16
2021-12-29 09:44:00,,0811.0,4.99,0.00,22.7,22.7,00.0,31.6,24.4,05.9,0000.0,0011.42,0003.06,0001.15
2021-12-29 09:45:00,,0811.0,5.01,0.00,22.6,22.4,00.0,31.6,24.3,05.9,0000.0,0012.00,0003.09,0001.14
2021-12-29 09:46:00,,0811.0,4.99,0.00,22.6,22.3,00.0,31.6,24.2,05.9,0000.0,0011.99,0003.17,0001.13
2021-12-29 09:47:00,,0811.0,5.00,0.00,22.6,22.1,00.0,31.6,24.2,06.0,0000.0,0011.87,0003.16,0001.14
2021-12-29 09:48:00,,0811.0,5.00,0.00,22.5,21.9,00.0,31.6,24.1,06.0,0000.0,0011.70,0003.18,0001.15
2021-12-29 09:49:00,,0810.8,5.00,0.00,22.5,21.8,00.0,31.5,24.1,06.0,0000.0,0010.82,0003.19,0001.14
2021-12-29 09:50:00,,0810.9,4.99,0.00,22.5,21.7,00.0,31.5,24.1,06.0,0000.0,0011.36,0003.23,0001.13
2021-12-29 09:51:00,,0810.9,5.01,0.00,22.4,21.7,00.0,31.5,24.1,06.0,0000.0,0011.52,0003.25,0001.13
2021-12-29 09:52:00,,0810.9,5.00,0.00,22.4,21.6,00.0,31.5,24.0,06.0,0000.0,0011.45,0003.25,0001.14
2021-12-29 09:53:00,,0811.0,4.99,0.00,22.4,21.6,00.0,31.5,24.0,06.0,0000.0,0011.52,0003.29,0001.15
2021-12-29 09:54:00,,0811.0,5.00,0.00,22.4,21.5,00.0,31.5,23.9,06.1,0000.0,0011.60,0003.24,0001.15
2021-12-29 09:55:00,,0811.0,5.01,0.00,22.4,21.6,00.0,31.5,23.9,06.1,0000.0,0012.27,0003.22,0001.16
2021-12-29 09:56:00,,0811.1,5.00,0.00,22.4,22.3,00.0,31.5,24.2,06.0,0000.0,0012.00,0003.26,0001.17
2021-12-29 09:57:00,,0811.0,5.00,0.00,22.6,23.0,00.0,31.5,24.4,06.0,0000.0,0011.96,0003.21,0001.18
2021-12-29 09:58:00,,0811.0,5.00,0.00,22.7,23.2,00.0,31.6,24.6,05.9,0000.0,0011.90,0003.18,0001.18
2021-12-29 09:59:00,,0811.0,4.99,0.00,22.7,23.0,00.0,31.6,24.6,05.9,0000.0,0011.35,0003.18,0001.19
